Time,TemperatureF,DewpointF,PressureIn,WindDirection,WindDirectionDegrees,WindSpeedMPH,WindSpeedGustMPH,Humidity,HourlyPrecipIn,Conditions,Clouds,dailyrainin,SoftwareType,DateUTC
2013-07-30 00:03:00,74.0,-99.9,30.15,NW,318,3.0,4.0,-999,-99.99,,,-99.99,,2013-07-30 04:03:00,
2013-07-30 00:23:00,-999.0,-99.9,30.16,NW,313,2.0,3.0,-999,-99.99,,,-99.99,,2013-07-30 04:23:00,
2013-07-30 00:43:00,73.0,-99.9,30.16,NW,315,3.0,4.0,-999,-99.99,,,-99.99,,2013-07-30 04:43:00,
2013-07-30 00:53:00,-999.0,-99.9,30.16,NNW,331,4.0,5.0,-999,-99.99,,,-99.99,,2013-07-30 04:53:00,
2013-07-30 01:03:00,73.0,-99.9,30.15,NW,316,4.0,6.0,-999,-99.99,,,-99.99,,2013-07-30 05:03:00,
2013-07-30 01:13:00,73.0,-99.9,30.15,North,-999,-999.0,-999.0,-999,-99.99,,,-99.99,,2013-07-30 05:13:00,
2013-07-30 01:23:00,-999.0,-99.9,30.15,NW,320,4.0,5.0,-999,-99.99,,,-99.99,,2013-07-30 05:23:00,
2013-07-30 01:33:00,-999.0,-99.9,30.15,NW,320,4.0,5.0,-999,-99.99,,,-99.99,,2013-07-30 05:33:00,
2013-07-30 01:45:00,-999.0,-99.9,30.16,WNW,302,5.0,7.0,-999,-99.99,,,-99.99,,2013-07-30 05:45:00,
2013-07-30 01:53:00,-999.0,-99.9,30.16,WNW,302,5.0,7.0,-999,-99.99,,,-99.99,,2013-07-30 05:53:00,
2013-07-30 02:03:00,72.0,-99.9,30.16,NW,315,5.0,6.0,-999,-99.99,,,-99.99,,2013-07-30 06:03:00,
2013-07-30 02:13:00,72.0,-99.9,30.16,NW,311,5.0,8.0,-999,-99.99,,,-99.99,,2013-07-30 06:13:00,
2013-07-30 02:43:00,-999.0,-99.9,30.16,NW,318,7.0,8.0,-999,-99.99,,,-99.99,,2013-07-30 06:43:00,
2013-07-30 02:53:00,-999.0,-99.9,30.16,NW,319,7.0,10.0,-999,-99.99,,,-99.99,,2013-07-30 06:53:00,
2013-07-30 03:03:00,72.0,-99.9,30.16,NW,315,6.0,9.0,-999,-99.99,,,-99.99,,2013-07-30 07:03:00,
2013-07-30 03:13:00,72.0,-99.9,30.16,North,-999,-999.0,-999.0,-999,-99.99,,,-99.99,,2013-07-30 07:13:00,
2013-07-30 03:33:00,71.0,-99.9,30.16,NW,305,4.0,7.0,-999,-99.99,,,-99.99,,2013-07-30 07:33:00,
2013-07-30 03:43:00,71.0,-99.9,30.17,NW,313,5.0,7.0,-999,-99.99,,,-99.99,,2013-07-30 07:43:00,
2013-07-30 03:53:00,70.0,-99.9,30.16,North,-999,-999.0,-999.0,-999,-99.99,,,-99.99,,2013-07-30 07:53:00,
2013-07-30 04:03:00,70.0,-99.9,30.16,WNW,298,3.0,5.0,-999,-99.99,,,-99.99,,2013-07-30 08:03:00,
2013-07-30 04:23:00,-999.0,-99.9,30.17,NW,318,6.0,7.0,-999,-99.99,,,-99.99,,2013-07-30 08:23:00,
2013-07-30 04:33:00,70.0,-99.9,30.16,NW,317,5.0,7.0,-999,-99.99,,,-99.99,,2013-07-30 08:33:00,
2013-07-30 04:43:00,70.0,-99.9,30.16,North,-999,-999.0,-999.0,-999,-99.99,,,-99.99,,2013-07-30 08:43:00,
2013-07-30 04:53:00,70.0,-99.9,30.16,North,-999,-999.0,-999.0,-999,-99.99,,,-99.99,,2013-07-30 08:53:00,
2013-07-30 05:03:00,69.0,-99.9,30.16,West,273,4.0,4.0,-999,-99.99,,,-99.99,,2013-07-30 09:03:00,
2013-07-30 05:23:00,69.0,-99.9,30.17,NW,312,4.0,5.0,-999,-99.99,,,-99.99,,2013-07-30 09:23:00,
2013-07-30 06:12:00,-999.0,-99.9,30.17,NW,313,1.0,2.0,-999,-99.99,,,-99.99,,2013-07-30 10:12:00,
2013-07-30 06:23:00,-999.0,-99.9,30.17,North,356,7.0,9.0,-999,-99.99,,,-99.99,,2013-07-30 10:23:00,
2013-07-30 06:52:00,-999.0,-99.9,30.19,WSW,251,4.0,5.0,-999,-99.99,,,-99.99,,2013-07-30 10:52:00,
2013-07-30 07:02:00,69.0,-99.9,30.19,West,263,4.0,5.0,-999,-99.99,,,-99.99,,2013-07-30 11:02:00,
2013-07-30 07:12:00,-999.0,-99.9,30.20,SW,234,2.0,3.0,-999,-99.99,,,-99.99,,2013-07-30 11:12:00,
2013-07-30 07:22:00,-999.0,-99.9,30.20,WSW,255,4.0,5.0,-999,-99.99,,,-99.99,,2013-07-30 11:22:00,
2013-07-30 07:43:00,-999.0,-99.9,30.21,WNW,303,4.0,4.0,-999,-99.99,,,-99.99,,2013-07-30 11:43:00,
2013-07-30 07:53:00,-999.0,-99.9,30.21,NW,316,4.0,5.0,-999,-99.99,,,-99.99,,2013-07-30 11:53:00,
2013-07-30 08:33:00,71.0,-99.9,30.22,NW,306,4.0,6.0,-999,-99.99,,,-99.99,,2013-07-30 12:33:00,
2013-07-30 08:42:00,-999.0,-99.9,30.23,NW,305,5.0,6.0,-999,-99.99,,,-99.99,,2013-07-30 12:42:00,
2013-07-30 08:53:00,72.0,-99.9,30.23,North,-999,-999.0,-999.0,-999,-99.99,,,-99.99,,2013-07-30 12:53:00,
2013-07-30 09:02:00,72.0,-99.9,30.23,North,-999,-999.0,-999.0,-999,-99.99,,,-99.99,,2013-07-30 13:02:00,
2013-07-30 09:12:00,-999.0,-99.9,30.23,WNW,303,5.0,6.0,-999,-99.99,,,-99.99,,2013-07-30 13:12:00,
2013-07-30 09:43:00,75.0,-99.9,30.22,NE,35,3.0,6.0,-999,-99.99,,,-99.99,,2013-07-30 13:43:00,
2013-07-30 09:53:00,-999.0,-99.9,30.21,NNE,18,3.0,6.0,-999,-99.99,,,-99.99,,2013-07-30 13:53:00,
2013-07-30 10:12:00,76.0,-99.9,30.21,ENE,65,2.0,5.0,-999,-99.99,,,-99.99,,2013-07-30 14:12:00,
2013-07-30 10:22:00,77.0,-99.9,30.21,North,-999,-999.0,-999.0,-999,-99.99,,,-99.99,,2013-07-30 14:22:00,
2013-07-30 10:43:00,-999.0,-99.9,30.21,West,271,3.0,4.0,-999,-99.99,,,-99.99,,2013-07-30 14:43:00,
2013-07-30 10:53:00,-999.0,-99.9,30.21,NW,311,8.0,11.0,-999,-99.99,,,-99.99,,2013-07-30 14:53:00,
2013-07-30 11:03:00,-999.0,-99.9,30.21,NW,311,8.0,11.0,-999,-99.99,,,-99.99,,2013-07-30 15:03:00,
2013-07-30 11:44:00,-999.0,-99.9,30.21,WSW,242,3.0,9.0,-999,-99.99,,,-99.99,,2013-07-30 15:44:00,
2013-07-30 12:12:00,78.0,-99.9,30.20,West,272,6.0,9.0,-999,-99.99,,,-99.99,,2013-07-30 16:12:00,
2013-07-30 12:23:00,-999.0,-99.9,30.20,WNW,282,7.0,11.0,-999,-99.99,,,-99.99,,2013-07-30 16:23:00,
2013-07-30 12:33:00,-999.0,-99.9,30.20,WNW,282,7.0,11.0,-999,-99.99,,,-99.99,,2013-07-30 16:33:00,
2013-07-30 12:44:00,78.0,-99.9,30.20,WNW,297,8.0,10.0,-999,-99.99,,,-99.99,,2013-07-30 16:44:00,
2013-07-30 13:02:00,80.0,-99.9,30.20,North,-999,-999.0,-999.0,-999,-99.99,,,-99.99,,2013-07-30 17:02:00,
2013-07-30 13:13:00,-999.0,-99.9,30.19,NNW,327,6.0,12.0,-999,-99.99,,,-99.99,,2013-07-30 17:13:00,
2013-07-30 14:03:00,80.0,-99.9,-100.00,North,-999,-999.0,-999.0,-999,-99.99,,,-99.99,,2013-07-30 18:03:00,
2013-07-30 14:13:00,80.0,-99.9,-100.00,North,-999,-999.0,-999.0,-999,-99.99,,,-99.99,,2013-07-30 18:13:00,
2013-07-30 14:52:00,81.0,-99.9,-100.00,North,-999,-999.0,-999.0,-999,-99.99,,,-99.99,,2013-07-30 18:52:00,
2013-07-30 15:44:00,81.0,-99.9,-100.00,North,-999,-999.0,-999.0,-999,-99.99,,,-99.99,,2013-07-30 19:44:00,
2013-07-30 16:02:00,81.0,-99.9,-100.00,North,-999,-999.0,-999.0,-999,-99.99,,,-99.99,,2013-07-30 20:02:00,
2013-07-30 16:43:00,81.0,-99.9,-100.00,North,-999,-999.0,-999.0,-999,-99.99,,,-99.99,,2013-07-30 20:43:00,
2013-07-30 17:03:00,81.0,-99.9,-100.00,North,-999,-999.0,-999.0,-999,-99.99,,,-99.99,,2013-07-30 21:03:00,
2013-07-30 18:32:00,81.0,-99.9,-100.00,North,-999,-999.0,-999.0,-999,-99.99,,,-99.99,,2013-07-30 22:32:00,
2013-07-30 18:53:00,81.0,-99.9,-100.00,North,-999,-999.0,-999.0,-999,-99.99,,,-99.99,,2013-07-30 22:53:00,
2013-07-30 19:02:00,82.0,-99.9,-100.00,North,-999,-999.0,-999.0,-999,-99.99,,,-99.99,,2013-07-30 23:02:00,
2013-07-30 19:13:00,82.0,-99.9,-100.00,North,-999,-999.0,-999.0,-999,-99.99,,,-99.99,,2013-07-30 23:13:00,
2013-07-30 19:32:00,81.0,-99.9,-100.00,North,-999,-999.0,-999.0,-999,-99.99,,,-99.99,,2013-07-30 23:32:00,
2013-07-30 19:43:00,81.0,-99.9,-100.00,North,-999,-999.0,-999.0,-999,-99.99,,,-99.99,,2013-07-30 23:43:00,
2013-07-30 19:53:00,80.0,-99.9,-100.00,North,-999,-999.0,-999.0,-999,-99.99,,,-99.99,,2013-07-30 23:53:00,
2013-07-30 20:02:00,80.0,-99.9,-100.00,North,-999,-999.0,-999.0,-999,-99.99,,,-99.99,,2013-07-31 00:02:00,
2013-07-30 20:12:00,80.0,-99.9,-100.00,North,-999,-999.0,-999.0,-999,-99.99,,,-99.99,,2013-07-31 00:12:00,
2013-07-30 20:32:00,80.0,-99.9,-100.00,North,-999,-999.0,-999.0,-999,-99.99,,,-99.99,,2013-07-31 00:32:00,
2013-07-30 20:43:00,79.0,-99.9,-100.00,North,-999,-999.0,-999.0,-999,-99.99,,,-99.99,,2013-07-31 00:43:00,
2013-07-30 20:53:00,79.0,-99.9,-100.00,North,-999,-999.0,-999.0,-999,-99.99,,,-99.99,,2013-07-31 00:53:00,
2013-07-30 21:03:00,79.0,-99.9,-100.00,North,-999,-999.0,-999.0,-999,-99.99,,,-99.99,,2013-07-31 01:03:00,
2013-07-30 21:22:00,79.0,-99.9,-100.00,North,-999,-999.0,-999.0,-999,-99.99,,,-99.99,,2013-07-31 01:22:00,
2013-07-30 22:03:00,78.0,-99.9,-100.00,North,-999,-999.0,-999.0,-999,-99.99,,,-99.99,,2013-07-31 02:03:00,
2013-07-30 23:02:00,77.0,-99.9,-100.00,North,-999,-999.0,-999.0,-999,-99.99,,,-99.99,,2013-07-31 03:02:00,